, FL

(GMT )
Bonifay

Weather History for K1J0 - August, 2019

Change the Weather History Date:

Thursday, August 29, 2019

  Actual Average Record
Temperature  
Mean Temperature 82 °F -  
Max Temperature 93 °F - - ()
Min Temperature 70 °F - - ()
Cooling Degree Days 16    
Growing Degree Days 32 (Base 50)    
Moisture  
Dew Point 67 °F    
Average Humidity 68    
Maximum Humidity 93    
Minimum Humidity 37    
Precipitation  
Precipitation 0.00 in - - ()
Sea Level Pressure  
Sea Level Pressure 29.88 in    
Wind  
Wind Speed 2 mph (NE)    
Max Wind Speed 9 mph    
Max Gust Speed -    
Visibility 10 miles    
Events      
Averages and records for this station are not official NWS values.
T = Trace of Precipitation, MM = Missing Value Source: NWS Daily Summary

Daily Weather History Graph

Daily Weather History Graph

Search for Another Location

Airport or City:

Astronomy

Aug. 29, 2019 Rise Set
Actual Time 7:16 AM EDT 8:09 PM EDT
Civil Twilight 6:52 AM EDT 8:34 PM EDT
Nautical Twilight 6:22 AM EDT 9:03 PM EDT
Astronomical Twilight 5:52 AM EDT 9:33 PM EDT
Moon 6:09 AM EDT (8/29) 7:59 PM EDT (8/29)
Length of Visible Light 13h 41m
Length of Day
12h 52m
Waning Crescent, 1% of the Moon is Illuminated
Aug 29
Waning Crescent
Aug 30
New
Sep 5
First Quarter
Sep 14
Full
Sep 21
Last Quarter

Hourly Weather History & Observations

Time (EDT) Temp. Heat Index Dew Point Humidity Pressure Visibility Wind Dir Wind Speed Gust Speed Precip Events Conditions
12:58 AM 73.9 °F - 72.0 °F 93% 29.86 in 9.0 mi Calm Calm - N/A   Clear
1:58 AM 73.9 °F - 71.1 °F 91% 29.84 in 10.0 mi Calm Calm - N/A   Clear
2:58 AM 73.0 °F - 70.0 °F 90% 29.84 in 10.0 mi Calm Calm - N/A   Clear
3:58 AM 72.0 °F - 69.1 °F 91% 29.84 in 10.0 mi Calm Calm - N/A   Clear
4:58 AM 71.1 °F - 69.1 °F 93% 29.84 in 8.0 mi Calm Calm - N/A   Clear
5:58 AM 70.0 °F - 68.0 °F 93% 29.86 in 10.0 mi Calm Calm - N/A   Clear
6:58 AM 70.0 °F - 68.0 °F 93% 29.87 in 7.0 mi Calm Calm - N/A   Clear
8:58 AM 77.0 °F - 68.0 °F 74% 29.91 in 10.0 mi NNE 5.8 mph - N/A   Clear
9:58 AM 82.0 °F 84.5 °F 66.9 °F 60% 29.92 in 10.0 mi NE 8.1 mph - N/A   Clear
10:58 AM 86.0 °F 88.2 °F 66.0 °F 51% 29.93 in 10.0 mi NE 6.9 mph - N/A   Clear
11:58 AM 89.1 °F 91.0 °F 64.9 °F 45% 29.94 in 10.0 mi NNE 9.2 mph - N/A   Clear
12:58 PM 90.0 °F 91.7 °F 64.9 °F 43% 29.93 in 10.0 mi Calm Calm - N/A   Clear
1:58 PM 91.0 °F 93.0 °F 64.9 °F 42% 29.91 in 10.0 mi ENE 3.5 mph - N/A   Clear
2:58 PM 93.0 °F 94.6 °F 64.0 °F 38% 29.88 in 10.0 mi NNE 9.2 mph - N/A   Clear
3:58 PM 93.0 °F 94.6 °F 64.0 °F 38% 29.87 in 10.0 mi NNE 8.1 mph - N/A   Clear
4:58 PM 93.0 °F 95.0 °F 64.9 °F 39% 29.86 in 10.0 mi Variable 5.8 mph - N/A   Clear
5:58 PM 91.9 °F 92.5 °F 62.1 °F 37% 29.86 in 10.0 mi NE 8.1 mph - N/A   Clear
6:58 PM 90.0 °F 91.7 °F 64.9 °F 43% 29.86 in 10.0 mi NNE 5.8 mph - N/A   Clear
7:58 PM 81.0 °F 83.8 °F 68.0 °F 65% 29.87 in 10.0 mi Calm Calm - N/A   Clear
8:58 PM 77.0 °F - 70.0 °F 79% 29.88 in 10.0 mi Calm Calm - N/A   Clear
9:58 PM 73.9 °F - 70.0 °F 87% 29.90 in 10.0 mi Calm Calm - N/A   Clear
10:58 PM 72.0 °F - 69.1 °F 91% 29.91 in 10.0 mi Calm Calm - N/A   Clear
11:58 PM 71.1 °F - 69.1 °F 93% 29.91 in 10.0 mi Calm Calm - N/A   Clear